[[{"header":{"parameterUnit":"m.s-1","parameterCategory":2,"la1":30.2991,"la2":30.254,"lo1":-89.0895,"lo2":-89.0444,"dy":0.0017,"dx":0.0017,"nx":28,"ny":28,"refTime":"2025-08-18T21:00:00:Z","depth":"0","parameterNumber":2,"parameterNumberName":"U-component_of_CURRENTS"},"data":[0,0,0,0,0,0,0,0,0,0,0,0,0,0,0,0,0,0,0,0,0,0,0,0,0,0,0,0,0,0,0,0,0,0,0,0,0,0,0,0,0,0,0,0,0,0,0,0,0,0,0,0,0,0,0,0,0,0,0.1592,0.1591,0,0.151,0.1509,0.1507,0.1421,0.142,0.1419,0.1418,0.127,0.1267,0.1264,0,0,0,0,0,0,0,0,0,0,0,0,0,0.1669,0.1668,0.1592,0.1591,0.159,0.151,0.1509,0.1507,0.1421,0.142,0.1419,0.1418,0.1271,0.1267,0.1264,0,0,0,0,0,0,0,0,0,0,0,0,0,0.1614,0.1668,0.1592,0.154,0.1535,0.151,0.1509,0.1507,0.1421,0.142,0.1419,0.1417,0.1272,0.1268,0.1263,0.1263,0,0,0.1249,0.1247,0,0,0,0,0,0,0,0,0.1617,0.161,0.1548,0.1543,0.1537,0.1477,0.1482,0.1423,0.1422,0.1461,0.1418,0.1417,0.1336,0.1326,0.131,0.1256,0.1249,0.1249,0.1246,0.1244,0.1243,0,0,0,0,0,0,0,0.1621,0.1614,0.1556,0.1548,0.1541,0.1519,0.151,0.147,0.1404,0.1458,0.1452,0.1448,0.1332,0.1315,0.1306,0.1247,0.1249,0.1245,0.1242,0.124,0.1241,0.1243,0,0,0,0,0,0,0.1639,0.1617,0.1559,0.1554,0.1578,0.1519,0.1508,0.1495,0.1406,0.1392,0.1449,0.1444,0.1324,0.1312,0.1301,0.1364,0.1244,0.124,0.1237,0.1238,0.1241,0.1244,0,0,0,0,0,0,0.164,0.1634,0.1562,0.1587,0.1576,0.152,0.1506,0.1494,0.148,0.1401,0.1385,0.1448,0.1322,0.1307,0.1293,0.1355,0.1237,0.1233,0.1235,0.1239,0.1243,0.1446,0,0,0,0,0,0,0.1643,0.1635,0.1641,0.1588,0.1576,0.1566,0.1507,0.1494,0.1481,0.1474,0.1394,0.1378,0.132,0.13,0.1288,0.1346,0.123,0.1231,0.1237,0.1242,0.1436,0.1456,0.1474,0,0,0,0,0,0.1646,0.1655,0.1642,0.1635,0.1583,0.1568,0.156,0.1513,0.1483,0.1491,0.1447,0.1381,0.1325,0.1299,0.1284,0.1342,0.1229,0.1235,0.1241,0.1427,0.1452,0.1474,0,0,0,0,0,0,0.1684,0.1647,0.163,0.1625,0.161,0.1554,0.1562,0.1527,0.1498,0.1494,0.1409,0.1392,0.1404,0.1346,0.1319,0.1359,0.1269,0.1273,0.1416,0.1439,0.1458,0.1507,0.1226,0,0,0,0,0,0.1701,0.1702,0.1665,0.1666,0.1665,0.1619,0.1609,0.1581,0.1545,0.153,0.148,0.1437,0.1419,0.1406,0.1371,0.139,0.1416,0.1419,0.1439,0.1455,0.1487,0.1589,0.1622,0.1265,0.1265,0.1265,0,0,0.1713,0.1697,0.1695,0.1676,0.1661,0.1685,0.1609,0.1611,0.1635,0.152,0.1542,0.1497,0.1437,0.1464,0.1465,0.1423,0.158,0.1463,0.1479,0.1501,0.1599,0.1634,0.1666,0.1269,0.1268,0.1268,0,0,0.1754,0.1733,0.1757,0.176,0.1756,0.1738,0.1747,0.1713,0.1704,0.172,0.1655,0.1665,0.1612,0.1608,0.1592,0.1699,0.1675,0.1672,0.1816,0.1915,0.1946,0.1974,0.2099,0.2136,0.1688,0.1688,0.1689,0,0.1774,0.1792,0.1764,0.1801,0.1812,0.1774,0.1811,0.1814,0.1781,0.1795,0.1755,0.1752,0.1697,0.1758,0.1796,0.1748,0.1803,0.1733,0.1946,0.1973,0.1998,0.2119,0.2157,0.1699,0.1698,0.1696,0.1695,0,0.184,0.186,0.1881,0.1918,0.1933,0.1957,0.1962,0.1985,0.1974,0.1972,0.2024,0.1982,0.1983,0.1975,0.1916,0.2058,0.2043,0.1959,0.1897,0.2047,0.2164,0.2201,0.1714,0.171,0.1707,0.1704,0,0,0.1847,0.1913,0.1918,0.1942,0.1992,0.1994,0.2081,0.2123,0.2168,0.2189,0.2264,0.2271,0.2254,0.2239,0.2185,0.2272,0.2501,0.2204,0.2204,0.2349,0.2764,0.2709,0.2742,0.2457,0.2463,0.2468,0.2794,0,0.1901,0.1976,0.2005,0.2075,0.2107,0.2129,0.2199,0.2244,0.228,0.2351,0.2379,0.2415,0.2354,0.2358,0.2457,0.2451,0.2599,0.2423,0.2579,0.2585,0.2533,0.2783,0.2736,0.3017,0.2829,0.2835,0.2839,0,0.1949,0.1988,0.2061,0.2128,0.2145,0.2187,0.2274,0.2334,0.2451,0.2488,0.2586,0.2589,0.2721,0.2635,0.284,0.2729,0.2798,0.2821,0.2831,0.2733,0.2597,0.2824,0.3089,0.2996,0.2894,0.289,0.2886,0,0.1928,0.2018,0.2065,0.209,0.2175,0.2209,0.2258,0.2365,0.2412,0.2579,0.2633,0.2798,0.2843,0.2987,0.3033,0.2963,0.3259,0.3152,0.3205,0.3201,0.3169,0.3151,0.3375,0.3379,0.3378,0.3377,0.3376,0,0.1953,0.1982,0.2047,0.2064,0.211,0.2186,0.2257,0.2338,0.2471,0.254,0.2685,0.2772,0.2929,0.3077,0.3156,0.331,0.3378,0.3317,0.3308,0.3238,0.3223,0.3134,0.3067,0.3389,0.3386,0.3384,0.3382,0,0.1904,0.1963,0.1996,0.2072,0.2091,0.2113,0.2208,0.2263,0.2406,0.2514,0.257,0.2787,0.3007,0.3175,0.3402,0.3428,0.3523,0.3624,0.3546,0.3521,0.3435,0.3379,0.3492,0.3403,0.3782,0.3783,0.3784,0,0.188,0.1897,0.1953,0.1962,0.1983,0.2033,0.2067,0.2206,0.2266,0.2495,0.2538,0.2803,0.2973,0.3335,0.3499,0.3749,0.3605,0.3784,0.3632,0.3512,0.3445,0.327,0.3172,0.3708,0.3708,0.3708,0.3708,0,0.1818,0.1834,0.186,0.1883,0.1899,0.1918,0.1979,0.2015,0.2184,0.2303,0.2487,0.266,0.3046,0.3302,0.3613,0.3726,0.3623,0.3788,0.3707,0.348,0.3268,0.3146,0.3415,0.3709,0.3709,0.3709,0.3709,0.3709,0.1758,0.1761,0.1801,0.1811,0.1809,0.1797,0.18,0.1891,0.1987,0.2174,0.2374,0.2641,0.3073,0.3528,0.3598,0.3719,0.3644,0.3672,0.3651,0.351,0.3313,0.3589,0.3801,0.3802,0.3802,0.3803,0.3803,0,0.1742,0.1751,0.1737,0.1741,0.1685,0.1719,0.1736,0.1754,0.1836,0.2087,0.2284,0.2752,0.3084,0.3394,0.3687,0.3613,0.3444,0.3534,0.3308,0.3241,0.3574,0.345,0.3541,0.3541,0.3541,0.3541,0.3541,0.3541,0.1749,0.1754,0.1747,0.164,0.1605,0.1538,0.153,0.1575,0.1728,0.201,0.2288,0.2563,0.3053,0.351,0.3602,0.3519,0.3254,0.317,0.3088,0.3342,0.3351,0.336,0.3229,0.3272,0.3271,0.2656,0.2652,0.2648]},{"header":{"parameterUnit":"m.s-1","parameterCategory":2,"la1":30.2991,"la2":30.254,"lo1":-89.0895,"lo2":-89.0444,"dy":0.0017,"dx":0.0017,"nx":28,"ny":28,"refTime":"2025-08-18T21:00:00:Z","depth":"0","parameterNumber":3,"parameterNumberName":"V-component_of_CURRENTS"},"data":[0,0,0,0,0,0,0,0,0,0,0,0,0,0,0,0,0,0,0,0,0,0,0,0,0,0,0,0,0,0,0,0,0,0,0,0,0,0,0,0,0,0,0,0,0,0,0,0,0,0,0,0,0,0,0,0,0,0,-0.0235,-0.0234,0,-0.0104,-0.0103,-0.0101,0.0001,0.0002,0.0003,0.0004,0.0042,0.0043,0.0043,0,0,0,0,0,0,0,0,0,0,0,0,0,-0.0268,-0.0269,-0.0235,-0.0234,-0.0232,-0.0104,-0.0103,-0.0101,0.0001,0.0002,0.0003,0.0004,0.0042,0.0043,0.0043,0,0,0,0,0,0,0,0,0,0,0,0,0,-0.0206,-0.0269,-0.0235,-0.0167,-0.016,-0.0105,-0.0102,-0.01,0.0001,0.0002,0.0003,0.0005,0.0042,0.0043,0.0043,0.002,0,0,0.0044,0.0044,0,0,0,0,0,0,0,0,-0.021,-0.0205,-0.0179,-0.0172,-0.0164,-0.0068,-0.01,-0.0065,0.0001,-0.0059,0.0004,0.0005,-0.0005,-0.0001,0.0025,0.0022,0.0023,0.0044,0.0044,0.0044,0.0045,0,0,0,0,0,0,0,-0.0215,-0.0209,-0.0182,-0.0177,-0.0168,-0.0099,-0.009,-0.0092,-0.0041,-0.0053,-0.0046,-0.0034,-0.0001,0.0024,0.0026,0.0024,0.0044,0.0044,0.0045,0.0045,0.0025,0.0025,0,0,0,0,0,0,-0.0243,-0.0215,-0.0186,-0.0178,-0.0186,-0.01,-0.009,-0.0099,-0.0039,-0.0028,-0.0036,-0.003,0.0023,0.0025,0.0028,0.0035,0.0044,0.0045,0.0045,0.0026,0.0025,0.0025,0,0,0,0,0,0,-0.0244,-0.0242,-0.0191,-0.0193,-0.0182,-0.0102,-0.0112,-0.0097,-0.0069,-0.0024,-0.0015,-0.0023,0.0024,0.0027,0.0043,0.0036,0.0045,0.0045,0.0027,0.0026,0.0025,0.0029,0,0,0,0,0,0,-0.0246,-0.0244,-0.026,-0.0196,-0.0183,-0.016,-0.0113,-0.0095,-0.0064,-0.0056,-0.0012,-0.0006,0.0025,0.0042,0.0043,0.0037,0.0046,0.0028,0.0027,0.0025,0.003,0.0029,0.0027,0,0,0,0,0,-0.0248,-0.0261,-0.0262,-0.0258,-0.0208,-0.016,-0.0147,-0.0083,-0.0065,-0.0054,-0.0016,-0.0007,0.0033,0.0042,0.0044,0.0037,0.0029,0.0027,0.0025,0.0031,0.0029,0.0027,0,0,0,0,0,0,-0.0266,-0.0251,-0.025,-0.0256,-0.0219,-0.0143,-0.0126,-0.0095,-0.0054,-0.0049,-0.0009,-0.0001,0.0011,0.0013,0.0022,0.0024,0.0028,0.0026,0.0032,0.003,0.0028,0.0065,0.0046,0,0,0,0,0,-0.0289,-0.0302,-0.0268,-0.027,-0.0262,-0.0204,-0.0178,-0.014,-0.0095,-0.0074,-0.004,-0.0017,0.0002,0.0009,0.0026,0.0022,0.0062,0.0014,0.0012,0.0011,0.004,0.0076,0.0081,0.0019,0.0019,0.0019,0,0,-0.0289,-0.0287,-0.0289,-0.0276,-0.0245,-0.0207,-0.0184,-0.015,-0.0105,-0.0083,-0.0026,-0.0022,0.0,0.0017,0.0019,0.0019,0.0052,0.0009,0.0009,0.0039,0.0075,0.0081,0.0087,0.0018,0.0018,0.0018,0,0,-0.0273,-0.0307,-0.0299,-0.0279,-0.0249,-0.0218,-0.0217,-0.0158,-0.0126,-0.0089,-0.0056,-0.0049,-0.0024,0.0006,0.0018,0.0009,0.0045,-0.0009,0.0016,0.0049,0.0055,0.0062,0.0138,0.015,-0.0012,-0.0012,-0.0012,0,-0.0269,-0.0259,-0.0283,-0.026,-0.0226,-0.0226,-0.0177,-0.0154,-0.0091,-0.0049,-0.0073,0.0002,-0.0018,0.0045,0.0025,0.0009,0.005,0.0024,0.0051,0.0057,0.0064,0.014,0.0154,-0.0012,-0.0012,-0.0012,-0.0012,0,-0.023,-0.022,-0.0213,-0.0191,-0.0168,-0.0134,-0.0109,-0.0085,-0.0069,-0.0021,0.0034,0.0023,0.009,0.0042,0.0022,0.0057,0.0081,0.0049,0.0064,0.0071,0.015,0.0165,-0.0012,-0.0012,-0.0012,-0.0012,0,0,-0.0196,-0.0186,-0.0176,-0.0137,-0.0125,-0.0082,-0.0051,0.0019,0.0115,0.009,0.0227,0.0158,0.0171,0.0183,0.0157,0.0134,0.0171,0.0096,0.0098,0.0189,0.0287,0.0258,0.0272,0.0143,0.0145,0.0147,0.0332,0,-0.0138,-0.0085,-0.0089,-0.0002,0.0035,0.0041,0.0109,0.016,0.0207,0.0328,0.0284,0.0393,0.0224,0.0285,0.0222,0.0212,0.0208,0.0127,0.0253,0.0259,0.0244,0.0286,0.0251,0.0409,0.0347,0.035,0.0351,0,-0.0073,-0.0046,0.0027,0.0126,0.0152,0.0205,0.0339,0.0412,0.0524,0.0581,0.0625,0.064,0.0633,0.0496,0.0449,0.041,0.0348,0.03,0.0306,0.0294,0.0256,0.0385,0.0438,0.0157,0.0375,0.0373,0.0371,0,-0.0015,0.0061,0.0122,0.0145,0.0234,0.0296,0.0373,0.049,0.0642,0.0781,0.0928,0.0893,0.0973,0.0834,0.0679,0.0593,0.065,0.0541,0.0471,0.0472,0.0476,0.0472,0.0289,0.0531,0.053,0.053,0.0529,0,0.0057,0.0121,0.016,0.0198,0.0351,0.0389,0.062,0.0683,0.0901,0.1133,0.1087,0.1262,0.1054,0.1049,0.0831,0.0718,0.0781,0.0513,0.0518,0.0475,0.0469,0.0251,0.0125,0.0537,0.0535,0.0534,0.0533,0,0.011,0.0126,0.0215,0.0312,0.0374,0.0487,0.0787,0.1005,0.1143,0.1454,0.1528,0.1604,0.1574,0.1374,0.1226,0.0987,0.0714,0.079,0.077,0.0764,0.0362,0.0241,0.022,0.0091,0.0746,0.0746,0.0747,0,0.0139,0.0175,0.0292,0.0411,0.0465,0.0679,0.0901,0.1105,0.1354,0.166,0.1835,0.1916,0.1981,0.1768,0.1376,0.1086,0.0816,0.0866,0.0646,0.0362,0.0231,0.0172,0.0058,0.068,0.0679,0.0679,0.0679,0,0.0208,0.0229,0.0312,0.0549,0.0761,0.104,0.1333,0.1549,0.1832,0.2041,0.229,0.2358,0.2173,0.1865,0.1479,0.1217,0.0666,0.085,0.0562,0.0176,0.0102,-0.0027,0.056,0.0677,0.0677,0.0677,0.0677,0.0678,0.0285,0.0367,0.0516,0.0756,0.1011,0.1374,0.1617,0.1905,0.2243,0.253,0.2574,0.2666,0.2247,0.1691,0.1322,0.0612,0.0656,0.0358,0.0254,0.0234,0.0028,0.062,0.0711,0.0711,0.0711,0.0712,0.0712,0,0.047,0.0582,0.0771,0.1086,0.1412,0.15,0.1925,0.2146,0.2458,0.2663,0.2804,0.2643,0.2068,0.1458,0.0551,0.0078,-0.0115,-0.0169,-0.0311,-0.0393,0.0142,0.0042,-0.0017,-0.0017,-0.0017,-0.0017,-0.0016,-0.0016,0.0603,0.0824,0.0917,0.1421,0.1639,0.204,0.2255,0.2472,0.2644,0.2815,0.284,0.286,0.2428,0.0856,-0.0254,-0.0514,-0.088,-0.085,-0.1033,-0.0764,-0.0726,-0.069,-0.0822,-0.1061,-0.1062,-0.1553,-0.1558,-0.1562]}],[{"header":{"parameterUnit":"m.s-1","parameterCategory":2,"la1":30.2991,"la2":30.254,"lo1":-89.0895,"lo2":-89.0444,"dy":0.0017,"dx":0.0017,"nx":28,"ny":28,"refTime":"2025-08-18T21:00:00:Z","depth":"2","parameterNumber":2,"parameterNumberName":"U-component_of_CURRENTS"},"data":[0,0,0,0,0,0,0,0,0,0,0,0,0,0,0,0,0,0,0,0,0,0,0,0,0,0,0,0,0,0,0,0,0,0,0,0,0,0,0,0,0,0,0,0,0,0,0,0,0,0,0,0,0,0,0,0,0,0,0.1971,0.1972,0,0.2009,0.2009,0.2009,0.2077,0.2078,0.208,0.2081,0.2172,0.2173,0.2175,0,0,0,0,0,0,0,0,0,0,0,0,0,0.1859,0.1861,0.1971,0.1972,0.1972,0.2009,0.2009,0.2009,0.2077,0.2078,0.208,0.2082,0.2172,0.2173,0.2175,0,0,0,0,0,0,0,0,0,0,0,0,0,0.1902,0.1862,0.1971,0.2012,0.2016,0.2009,0.2009,0.2009,0.2076,0.2078,0.2081,0.2083,0.2172,0.2173,0.2175,0.2142,0,0,0.218,0.2181,0,0,0,0,0,0,0,0,0.1899,0.1906,0.2005,0.2009,0.2013,0.2042,0.2003,0.2057,0.2076,0.2052,0.2081,0.2084,0.2133,0.2138,0.2137,0.2146,0.215,0.218,0.2181,0.2182,0.2182,0,0,0,0,0,0,0,0.1896,0.1904,0.1984,0.2005,0.2011,0.1994,0.2003,0.2013,0.208,0.2054,0.2059,0.2065,0.2136,0.2135,0.214,0.2151,0.218,0.2181,0.2182,0.2183,0.2265,0.2266,0,0,0,0,0,0,0.1898,0.1901,0.1983,0.1986,0.1962,0.1995,0.2005,0.2029,0.2078,0.2088,0.2063,0.2068,0.2132,0.2138,0.2144,0.2202,0.2182,0.2183,0.2184,0.2263,0.2265,0.2266,0,0,0,0,0,0,0.1896,0.1906,0.1982,0.1944,0.1953,0.1995,0.2021,0.2029,0.2055,0.2085,0.2096,0.2085,0.2134,0.2141,0.2194,0.2203,0.2184,0.2185,0.2262,0.2264,0.2266,0.2258,0,0,0,0,0,0,0.1893,0.1905,0.1925,0.1945,0.1956,0.1999,0.202,0.2028,0.2054,0.2062,0.2106,0.2116,0.2136,0.2191,0.2195,0.2205,0.2187,0.2261,0.2263,0.2265,0.2257,0.226,0.2262,0,0,0,0,0,0.1889,0.1908,0.1926,0.1936,0.1982,0.2,0.2004,0.2038,0.2053,0.2068,0.2112,0.2116,0.2208,0.2193,0.2198,0.2208,0.2259,0.2262,0.2265,0.2256,0.2259,0.2262,0,0,0,0,0,0,0.187,0.1917,0.1938,0.1972,0.1994,0.2013,0.2026,0.2042,0.2082,0.2107,0.2128,0.214,0.2193,0.2202,0.2185,0.2241,0.2235,0.2238,0.2226,0.2229,0.2232,0.2263,0.2188,0,0,0,0,0,0.1873,0.1906,0.1938,0.1967,0.1978,0.2001,0.2013,0.2045,0.2079,0.2099,0.213,0.2169,0.2199,0.2218,0.2252,0.2271,0.23,0.2283,0.2286,0.2287,0.2318,0.2388,0.2399,0.2275,0.2275,0.2275,0,0,0.1877,0.1903,0.1925,0.1965,0.1983,0.201,0.2015,0.2052,0.2098,0.2101,0.2173,0.2184,0.2211,0.225,0.2271,0.226,0.2328,0.2291,0.2292,0.2323,0.2392,0.2404,0.2415,0.2277,0.2276,0.2276,0,0,0.1886,0.1921,0.1948,0.1971,0.2012,0.2028,0.2042,0.2081,0.2126,0.2182,0.22,0.2223,0.2269,0.2286,0.2298,0.2331,0.2346,0.2333,0.236,0.2426,0.2437,0.2447,0.2452,0.2463,0.2325,0.2325,0.2325,0,0.1895,0.1932,0.1954,0.1983,0.201,0.2038,0.2074,0.2116,0.2175,0.2223,0.2222,0.2283,0.2292,0.2328,0.234,0.2336,0.2365,0.2339,0.2429,0.244,0.2451,0.2454,0.2466,0.2325,0.2325,0.2325,0.2325,0,0.1929,0.1956,0.197,0.2023,0.2051,0.2088,0.2146,0.2194,0.2239,0.229,0.2357,0.2353,0.2395,0.2376,0.237,0.243,0.242,0.2428,0.2418,0.2463,0.2462,0.2475,0.2325,0.2325,0.2325,0.2325,0,0,0.194,0.1991,0.1991,0.202,0.2085,0.2109,0.219,0.2271,0.2335,0.2386,0.2457,0.2472,0.2477,0.2491,0.2459,0.2487,0.2548,0.249,0.2493,0.2489,0.2666,0.2605,0.2612,0.2582,0.2585,0.2588,0.2617,0,0.1959,0.2012,0.2036,0.2087,0.2119,0.2174,0.2244,0.2333,0.24,0.2479,0.2504,0.2568,0.2521,0.2527,0.2551,0.2571,0.2592,0.2538,0.2631,0.2633,0.257,0.263,0.2441,0.2449,0.263,0.2632,0.2633,0,0.1981,0.2007,0.2071,0.213,0.2151,0.2197,0.2305,0.2382,0.2507,0.2562,0.262,0.266,0.2706,0.266,0.2722,0.2697,0.2696,0.2688,0.269,0.2658,0.2599,0.2446,0.2466,0.2655,0.2653,0.2652,0.265,0,0.197,0.2025,0.2079,0.2106,0.2187,0.2237,0.2296,0.2419,0.2513,0.2633,0.2702,0.2761,0.2811,0.2835,0.2848,0.2807,0.2916,0.2854,0.2783,0.2775,0.2648,0.2625,0.2916,0.2916,0.2916,0.2916,0.2916,0,0.1975,0.2002,0.2082,0.2106,0.2182,0.2252,0.2355,0.2425,0.2558,0.2662,0.2753,0.2798,0.2876,0.2946,0.2911,0.2906,0.2982,0.2814,0.2803,0.2633,0.2609,0.2826,0.2815,0.2917,0.2916,0.2916,0.2916,0,0.1939,0.2001,0.2053,0.214,0.218,0.2243,0.2386,0.2461,0.2594,0.272,0.2778,0.2899,0.2959,0.3014,0.3055,0.2997,0.2986,0.2962,0.2732,0.2694,0.2763,0.2751,0.2856,0.2854,0.2853,0.2852,0.2852,0,0.1928,0.196,0.2061,0.2106,0.2144,0.2248,0.2325,0.2468,0.2551,0.2738,0.2788,0.2924,0.292,0.2976,0.2957,0.2926,0.2969,0.273,0.261,0.279,0.2769,0.2759,0.275,0.2407,0.2403,0.2399,0.2396,0,0.1888,0.1938,0.1974,0.2069,0.2152,0.2235,0.2349,0.2407,0.2574,0.2657,0.2722,0.2737,0.2811,0.2697,0.2739,0.2677,0.272,0.2652,0.2958,0.2458,0.2372,0.2349,0.2354,0.2365,0.2368,0.237,0.2372,0.2373,0.1856,0.188,0.1952,0.2038,0.2123,0.2192,0.2207,0.228,0.2359,0.2411,0.2524,0.2467,0.2523,0.2428,0.2374,0.2378,0.2513,0.2397,0.2406,0.2419,0.2369,0.2287,0.225,0.2253,0.2255,0.2257,0.2258,0,0.1823,0.1867,0.1922,0.2023,0.2069,0.2149,0.2202,0.2145,0.2108,0.2185,0.2176,0.2023,0.1967,0.2037,0.1989,0.1996,0.1953,0.1915,0.1849,0.1884,0.1915,0.1835,0.1577,0.1574,0.1572,0.1569,0,0,0.1817,0.1852,0.1887,0.1958,0.2019,0.2001,0.1985,0.1869,0.1845,0.1715,0.1704,0.1828,0.1958,0.1729,0.1729,0.1645,0.1736,0.1581,0.2136,0.2093,0.212,0.2214,0.2136,0,0,0,0,0]},{"header":{"parameterUnit":"m.s-1","parameterCategory":2,"la1":30.2991,"la2":30.254,"lo1":-89.0895,"lo2":-89.0444,"dy":0.0017,"dx":0.0017,"nx":28,"ny":28,"refTime":"2025-08-18T21:00:00:Z","depth":"2","parameterNumber":3,"parameterNumberName":"V-component_of_CURRENTS"},"data":[0,0,0,0,0,0,0,0,0,0,0,0,0,0,0,0,0,0,0,0,0,0,0,0,0,0,0,0,0,0,0,0,0,0,0,0,0,0,0,0,0,0,0,0,0,0,0,0,0,0,0,0,0,0,0,0,0,0,-0.0218,-0.0218,0,-0.0218,-0.0219,-0.0219,-0.0291,-0.0292,-0.0294,-0.0295,-0.0406,-0.0407,-0.0408,0,0,0,0,0,0,0,0,0,0,0,0,0,-0.0208,-0.0208,-0.0218,-0.0218,-0.0218,-0.0218,-0.0219,-0.0219,-0.029,-0.0292,-0.0294,-0.0296,-0.0405,-0.0407,-0.0408,0,0,0,0,0,0,0,0,0,0,0,0,0,-0.0213,-0.0208,-0.0218,-0.0252,-0.0255,-0.0218,-0.0219,-0.0219,-0.029,-0.0292,-0.0295,-0.0297,-0.0405,-0.0407,-0.0409,-0.0371,0,0,-0.0415,-0.0416,0,0,0,0,0,0,0,0,-0.0212,-0.0213,-0.0247,-0.0249,-0.0252,-0.0255,-0.0255,-0.0274,-0.0289,-0.0279,-0.0295,-0.0298,-0.0362,-0.0368,-0.0364,-0.0376,-0.0381,-0.0415,-0.0416,-0.0417,-0.0418,0,0,0,0,0,0,0,-0.0212,-0.0213,-0.0221,-0.0247,-0.025,-0.0242,-0.0246,-0.0258,-0.031,-0.028,-0.0285,-0.028,-0.0365,-0.0362,-0.0367,-0.0383,-0.0415,-0.0417,-0.0418,-0.0419,-0.0425,-0.0424,0,0,0,0,0,0,-0.0208,-0.0213,-0.0221,-0.022,-0.0236,-0.024,-0.0245,-0.0253,-0.0308,-0.0317,-0.0278,-0.0283,-0.0357,-0.0365,-0.0372,-0.037,-0.0417,-0.0419,-0.042,-0.0426,-0.0425,-0.0424,0,0,0,0,0,0,-0.0208,-0.0209,-0.022,-0.0214,-0.0215,-0.0238,-0.0246,-0.0252,-0.0268,-0.0305,-0.0317,-0.029,-0.0359,-0.0369,-0.0397,-0.0374,-0.042,-0.0422,-0.0428,-0.0426,-0.0425,-0.0343,0,0,0,0,0,0,-0.0208,-0.021,-0.022,-0.0214,-0.0215,-0.0202,-0.0244,-0.025,-0.0259,-0.0267,-0.0318,-0.033,-0.0362,-0.0394,-0.0399,-0.0378,-0.0424,-0.0429,-0.0427,-0.0425,-0.0347,-0.0339,-0.0332,0,0,0,0,0,-0.0208,-0.0197,-0.022,-0.0221,-0.0227,-0.0201,-0.02,-0.0226,-0.0257,-0.0253,-0.0297,-0.033,-0.0385,-0.0395,-0.0401,-0.038,-0.043,-0.0428,-0.0425,-0.035,-0.034,-0.0332,0,0,0,0,0,0,-0.0188,-0.0203,-0.0229,-0.0224,-0.0219,-0.0213,-0.0208,-0.0224,-0.0251,-0.0279,-0.0318,-0.0331,-0.0347,-0.0372,-0.0381,-0.0376,-0.0411,-0.041,-0.0352,-0.0343,-0.0335,-0.0345,-0.0425,0,0,0,0,0,-0.0189,-0.02,-0.02,-0.0199,-0.0195,-0.0205,-0.0201,-0.0224,-0.024,-0.0255,-0.0286,-0.0321,-0.0333,-0.0349,-0.0371,-0.0365,-0.0411,-0.0355,-0.0347,-0.034,-0.0352,-0.0401,-0.04,-0.0416,-0.0416,-0.0416,0,0,-0.0186,-0.0191,-0.0202,-0.0197,-0.0199,-0.0175,-0.021,-0.021,-0.0208,-0.0262,-0.0277,-0.03,-0.0328,-0.0327,-0.0334,-0.035,-0.0355,-0.0337,-0.0331,-0.0347,-0.0399,-0.0398,-0.0397,-0.0415,-0.0415,-0.0415,0,0,-0.0152,-0.0184,-0.0171,-0.0166,-0.0169,-0.0168,-0.0168,-0.0173,-0.0199,-0.0208,-0.0242,-0.0256,-0.0279,-0.0287,-0.0294,-0.0255,-0.0316,-0.0256,-0.0223,-0.0269,-0.0269,-0.0269,-0.0309,-0.0313,-0.0249,-0.0249,-0.0249,0,-0.0151,-0.0134,-0.0159,-0.0133,-0.0125,-0.016,-0.0131,-0.0146,-0.0166,-0.0182,-0.0214,-0.0237,-0.0259,-0.0245,-0.023,-0.0238,-0.028,-0.0253,-0.0261,-0.0262,-0.0264,-0.0305,-0.0311,-0.0245,-0.0245,-0.0246,-0.0246,0,-0.0103,-0.009,-0.0074,-0.0064,-0.0055,-0.0042,-0.0059,-0.007,-0.0107,-0.0128,-0.0149,-0.0177,-0.0193,-0.0184,-0.0197,-0.0197,-0.0227,-0.0248,-0.0286,-0.0258,-0.0302,-0.031,-0.0239,-0.024,-0.0241,-0.0242,0,0,-0.0085,-0.0053,-0.0045,-0.003,-0.0028,-0.0011,-0.0009,-0.001,-0.0022,-0.006,-0.007,-0.0078,-0.0115,-0.0125,-0.0136,-0.0165,-0.0196,-0.0207,-0.0212,-0.0249,-0.0304,-0.03,-0.0309,-0.0226,-0.0227,-0.0228,-0.0323,0,-0.0038,0.0021,0.0023,0.0077,0.0108,0.0077,0.0084,0.0062,0.0027,0.0003,-0.0044,-0.0065,-0.0086,-0.0095,-0.0125,-0.0179,-0.0217,-0.0169,-0.0324,-0.0329,-0.0331,-0.0317,-0.0282,-0.0362,-0.0331,-0.0333,-0.0334,0,0.0016,0.0052,0.0103,0.0139,0.0146,0.0162,0.0155,0.0147,0.0099,0.0068,0.0032,-0.0018,-0.0047,-0.0086,-0.018,-0.0153,-0.0228,-0.0277,-0.0283,-0.032,-0.034,-0.0389,-0.0379,-0.0348,-0.0347,-0.0346,-0.0345,0,0.0053,0.0113,0.015,0.0159,0.0188,0.0191,0.019,0.0157,0.0149,0.0094,0.0086,0.0019,-0.001,-0.0113,-0.0206,-0.0209,-0.0328,-0.0347,-0.0416,-0.0417,-0.0438,-0.0438,-0.0442,-0.0442,-0.0441,-0.0441,-0.0441,0,0.0111,0.0148,0.0162,0.0189,0.0217,0.0211,0.0222,0.0207,0.0183,0.0189,0.011,0.0115,-0.0024,-0.0102,-0.0207,-0.0326,-0.0336,-0.0418,-0.0444,-0.0405,-0.0401,-0.0435,-0.0433,-0.0445,-0.0444,-0.0443,-0.0443,0,0.0157,0.0163,0.0207,0.0233,0.0237,0.0242,0.0257,0.0273,0.0236,0.0245,0.023,0.0173,0.0081,-0.0056,-0.0214,-0.0311,-0.0436,-0.0482,-0.0419,-0.0436,-0.0498,-0.0491,-0.058,-0.0581,-0.0582,-0.0582,-0.0583,0,0.0177,0.0202,0.0234,0.0259,0.0271,0.0285,0.0307,0.029,0.0316,0.03,0.0321,0.0234,0.0209,-0.0017,-0.0211,-0.0409,-0.0434,-0.0517,-0.0515,-0.0497,-0.0514,-0.0506,-0.0497,-0.0509,-0.0509,-0.0509,-0.0509,0,0.0213,0.021,0.0251,0.0315,0.0342,0.0381,0.0411,0.0436,0.0427,0.0459,0.0488,0.0458,0.025,0.0074,-0.0209,-0.034,-0.0483,-0.052,-0.0534,-0.0468,-0.0435,-0.0449,-0.0443,-0.0507,-0.0507,-0.0507,-0.0507,-0.0507,0.0212,0.0248,0.0304,0.0366,0.0417,0.0477,0.0502,0.0566,0.0616,0.0658,0.0623,0.0611,0.0366,0.0042,-0.02,-0.0455,-0.0463,-0.0551,-0.055,-0.0549,-0.0512,-0.0481,-0.0555,-0.0555,-0.0556,-0.0556,-0.0556,0,0.0217,0.0286,0.0362,0.0429,0.0501,0.0523,0.0586,0.0623,0.0709,0.078,0.081,0.0622,0.0398,0.013,-0.0242,-0.0484,-0.0499,-0.0549,-0.0516,-0.0516,-0.0517,-0.0477,-0.0512,-0.0512,-0.0512,-0.0513,0,0,0.022,0.0301,0.0365,0.0482,0.0547,0.0615,0.0648,0.0739,0.0805,0.0888,0.0908,0.0845,0.0505,0.0253,-0.008,-0.0288,-0.0342,-0.0327,-0.034,-0.0262,-0.0259,-0.05,-0.0437,0,0,0,0,0]}],[{"header":{"parameterUnit":"m.s-1","parameterCategory":2,"la1":30.2991,"la2":30.254,"lo1":-89.0895,"lo2":-89.0444,"dy":0.0017,"dx":0.0017,"nx":28,"ny":28,"refTime":"2025-08-18T21:00:00:Z","depth":"4","parameterNumber":2,"parameterNumberName":"U-component_of_CURRENTS"},"data":[0,0,0,0,0,0,0,0,0,0,0,0,0,0,0,0,0,0,0,0,0,0,0,0,0,0,0,0,0,0,0,0,0,0,0,0,0,0,0,0,0,0,0,0,0,0,0,0,0,0,0,0,0,0,0,0,0,0,0.0971,0.0971,0,0.1004,0.1004,0.1004,0.1041,0.1041,0.1042,0.1043,0.1066,0.1066,0.1066,0,0,0,0,0,0,0,0,0,0,0,0,0,0.0901,0.0902,0.0971,0.0971,0.0972,0.1003,0.1004,0.1004,0.1041,0.1041,0.1042,0.1043,0.1066,0.1066,0.1066,0,0,0,0,0,0,0,0,0,0,0,0,0,0.0931,0.0902,0.0971,0.0995,0.0997,0.1003,0.1004,0.1004,0.104,0.1041,0.1042,0.1043,0.1066,0.1066,0.1066,0.1047,0,0,0.1066,0.1066,0,0,0,0,0,0,0,0,0.0929,0.0933,0.0991,0.0993,0.0996,0.102,0.0988,0.1019,0.104,0.1023,0.1043,0.1044,0.105,0.1051,0.1054,0.1048,0.1049,0.1066,0.1066,0.1066,0.1066,0,0,0,0,0,0,0,0.0927,0.0932,0.0982,0.0991,0.0994,0.099,0.0996,0.0994,0.1029,0.1024,0.1027,0.1033,0.1051,0.1054,0.1055,0.105,0.1066,0.1066,0.1066,0.1066,0.1155,0.1157,0,0,0,0,0,0,0.0927,0.093,0.0981,0.0984,0.0966,0.0991,0.0997,0.101,0.103,0.1034,0.1032,0.1034,0.1053,0.1055,0.1056,0.1127,0.1066,0.1066,0.1067,0.1152,0.1155,0.1158,0,0,0,0,0,0,0.0925,0.0931,0.098,0.0958,0.0964,0.0992,0.1006,0.101,0.1045,0.1036,0.104,0.1065,0.1054,0.1056,0.1089,0.1125,0.1067,0.1067,0.115,0.1153,0.1157,0.121,0,0,0,0,0,0,0.0923,0.0931,0.0949,0.0958,0.0966,0.101,0.1005,0.101,0.1045,0.105,0.1065,0.1066,0.1055,0.1089,0.1089,0.1124,0.1067,0.1147,0.1151,0.1155,0.1206,0.1215,0.1224,0,0,0,0,0,0.0921,0.0938,0.095,0.0957,0.0987,0.1012,0.1016,0.1036,0.1046,0.107,0.1084,0.1068,0.1117,0.109,0.109,0.1126,0.1145,0.115,0.1155,0.1202,0.1213,0.1223,0,0,0,0,0,0,0.0913,0.0944,0.0957,0.0983,0.1009,0.1019,0.104,0.1054,0.1082,0.1091,0.1085,0.1088,0.1135,0.1126,0.1097,0.1169,0.1133,0.1138,0.1169,0.118,0.1188,0.1208,0.1067,0,0,0,0,0,0.092,0.0947,0.0972,0.0996,0.1012,0.1032,0.1049,0.1064,0.1083,0.1098,0.1113,0.1131,0.115,0.1162,0.1176,0.1203,0.1202,0.1233,0.1242,0.1249,0.1268,0.1287,0.1299,0.1175,0.1175,0.1175,0,0,0.0922,0.0944,0.0958,0.0997,0.1018,0.1048,0.1046,0.1079,0.1107,0.1094,0.1146,0.1162,0.1167,0.1206,0.1227,0.1205,0.1287,0.1256,0.1262,0.1277,0.1294,0.1305,0.1316,0.1178,0.1178,0.1177,0,0,0.0933,0.0963,0.099,0.1017,0.1057,0.1072,0.1092,0.1125,0.1148,0.1188,0.1196,0.124,0.126,0.1281,0.1288,0.1356,0.1335,0.1366,0.1421,0.1438,0.1448,0.1457,0.1473,0.1483,0.1367,0.1367,0.1367,0,0.0928,0.0974,0.1001,0.1034,0.106,0.1091,0.1124,0.1148,0.1191,0.1217,0.1217,0.1293,0.1297,0.1352,0.1384,0.1375,0.1381,0.1372,0.1448,0.1456,0.1464,0.1479,0.1489,0.1371,0.137,0.137,0.1369,0,0.096,0.1002,0.1021,0.1077,0.111,0.1144,0.1181,0.1227,0.1258,0.128,0.1353,0.1372,0.142,0.1434,0.1427,0.1499,0.1485,0.1455,0.1413,0.1479,0.1492,0.1501,0.1375,0.1374,0.1373,0.1372,0,0,0.0928,0.1023,0.1033,0.1071,0.1137,0.1164,0.1225,0.1284,0.133,0.1379,0.1439,0.1494,0.1518,0.1532,0.1543,0.1569,0.1628,0.1546,0.1545,0.1551,0.1674,0.1584,0.1584,0.1607,0.1609,0.161,0.166,0,0.0945,0.1011,0.106,0.1131,0.1167,0.1225,0.1278,0.1335,0.1383,0.1448,0.1489,0.1548,0.1548,0.1585,0.1614,0.1625,0.1656,0.1618,0.1621,0.1621,0.1522,0.1593,0.1617,0.1667,0.1669,0.1671,0.1672,0,0.0957,0.1005,0.1071,0.1166,0.1189,0.1241,0.134,0.1392,0.1479,0.1517,0.1589,0.1618,0.1693,0.167,0.1733,0.1708,0.1711,0.1712,0.1712,0.1617,0.1548,0.1589,0.1688,0.1687,0.1685,0.1684,0.1683,0,0.0913,0.1012,0.1068,0.1098,0.1205,0.126,0.1327,0.1419,0.1472,0.1574,0.1622,0.1697,0.1748,0.1767,0.1784,0.1764,0.1832,0.1788,0.1715,0.1708,0.1747,0.1737,0.1838,0.1838,0.1838,0.1838,0.1838,0,0.0897,0.0946,0.106,0.1088,0.1169,0.1252,0.1343,0.1417,0.1523,0.1584,0.1662,0.1717,0.1778,0.1817,0.1812,0.1796,0.1852,0.1748,0.1722,0.177,0.1762,0.1753,0.1742,0.184,0.1839,0.1839,0.1839,0,0.0836,0.091,0.0979,0.1103,0.1148,0.1206,0.1351,0.1411,0.1522,0.1607,0.1647,0.1755,0.1809,0.1849,0.1885,0.1827,0.1818,0.1798,0.1868,0.184,0.1677,0.1669,0.1719,0.1716,0.1714,0.1712,0.1711,0,0.0806,0.0837,0.0968,0.102,0.1085,0.1189,0.1258,0.1391,0.1452,0.161,0.1637,0.1748,0.18,0.1779,0.1827,0.1823,0.18,0.178,0.1723,0.1699,0.1669,0.1664,0.166,0.1707,0.1706,0.1706,0.1705,0,0.0747,0.0802,0.086,0.0968,0.1052,0.1132,0.1244,0.1278,0.1423,0.1533,0.1592,0.1631,0.1695,0.1721,0.1742,0.1728,0.1779,0.1756,0.176,0.1706,0.1685,0.1656,0.1654,0.1697,0.1699,0.1699,0.17,0,0.0697,0.0725,0.0817,0.0908,0.101,0.1067,0.1125,0.1208,0.1283,0.1452,0.1465,0.1575,0.1676,0.1674,0.1683,0.1677,0.1648,0.1575,0.1588,0.1597,0.1535,0.1489,0.1438,0,0,0,0,0,0.0644,0.0682,0.0759,0.0855,0.0957,0.1013,0.1121,0.1178,0.1306,0.1311,0.1389,0.144,0.1485,0.1543,0.1512,0.1634,0.1652,0.1591,0.1574,0.1655,0.1664,0.1601,0,0,0,0,0,0,0.0604,0.0673,0.0727,0.0804,0.086,0.095,0.1006,0.1081,0.1093,0.1224,0.1255,0.1355,0.1417,0.1489,0.1486,0.1503,0.1462,0.1664,0.166,0.165,0.1658,0.1665,0.1604,0,0,0,0,0]},{"header":{"parameterUnit":"m.s-1","parameterCategory":2,"la1":30.2991,"la2":30.254,"lo1":-89.0895,"lo2":-89.0444,"dy":0.0017,"dx":0.0017,"nx":28,"ny":28,"refTime":"2025-08-18T21:00:00:Z","depth":"4","parameterNumber":3,"parameterNumberName":"V-component_of_CURRENTS"},"data":[0,0,0,0,0,0,0,0,0,0,0,0,0,0,0,0,0,0,0,0,0,0,0,0,0,0,0,0,0,0,0,0,0,0,0,0,0,0,0,0,0,0,0,0,0,0,0,0,0,0,0,0,0,0,0,0,0,0,0.0094,0.0094,0,0.0061,0.0061,0.006,0.0026,0.0026,0.0026,0.0025,-0.0025,-0.0026,-0.0027,0,0,0,0,0,0,0,0,0,0,0,0,0,0.0086,0.0086,0.0094,0.0094,0.0093,0.0061,0.0061,0.006,0.0026,0.0026,0.0026,0.0025,-0.0025,-0.0026,-0.0027,0,0,0,0,0,0,0,0,0,0,0,0,0,0.0073,0.0086,0.0094,0.0074,0.0072,0.0061,0.0061,0.006,0.0027,0.0026,0.0026,0.0025,-0.0025,-0.0026,-0.0028,-0.0028,0,0,-0.0032,-0.0033,0,0,0,0,0,0,0,0,0.0074,0.0074,0.0077,0.0075,0.0073,0.0049,0.0039,0.003,0.0027,0.0042,0.0025,0.0025,-0.0001,-0.0004,-0.0011,-0.003,-0.0032,-0.0033,-0.0034,-0.0034,-0.0035,0,0,0,0,0,0,0,0.0075,0.0075,0.0079,0.0077,0.0074,0.0052,0.005,0.0037,0.0022,0.0041,0.0039,0.0038,-0.0002,-0.001,-0.0013,-0.0033,-0.0033,-0.0034,-0.0035,-0.0036,-0.0083,-0.0084,0,0,0,0,0,0,0.0085,0.0076,0.008,0.0079,0.0074,0.0053,0.0051,0.0056,0.0023,0.0018,0.0038,0.0036,-0.0007,-0.0011,-0.0015,-0.0026,-0.0034,-0.0036,-0.0037,-0.0083,-0.0083,-0.0084,0,0,0,0,0,0,0.0085,0.0086,0.0082,0.0077,0.0075,0.0054,0.006,0.0055,0.0048,0.0021,0.0015,0.0036,-0.0007,-0.0013,-0.003,-0.0028,-0.0036,-0.0038,-0.0083,-0.0083,-0.0084,-0.0042,0,0,0,0,0,0,0.0085,0.0087,0.0092,0.0078,0.0076,0.0079,0.006,0.0055,0.0049,0.0046,0.0018,0.0012,-0.0008,-0.0027,-0.0031,-0.003,-0.0039,-0.0082,-0.0083,-0.0083,-0.0043,-0.0041,-0.0039,0,0,0,0,0,0.0085,0.0099,0.0093,0.0094,0.0085,0.008,0.0077,0.0059,0.005,0.005,0.0026,0.0013,-0.0035,-0.0029,-0.0033,-0.0032,-0.0082,-0.0083,-0.0083,-0.0044,-0.0041,-0.0039,0,0,0,0,0,0,0.0102,0.0097,0.009,0.0102,0.0093,0.0075,0.0075,0.0064,0.0045,0.0041,0.0013,0.0006,-0.001,-0.0028,-0.0021,-0.005,-0.0062,-0.0064,-0.003,-0.0028,-0.0026,-0.002,-0.004,0,0,0,0,0,0.0109,0.0116,0.0105,0.0115,0.0112,0.0094,0.009,0.0078,0.0062,0.0053,0.0034,0.0008,-0.0017,-0.0027,-0.0049,-0.0059,-0.0093,-0.0064,-0.0062,-0.006,-0.006,-0.0111,-0.0114,-0.0086,-0.0086,-0.0086,0,0,0.012,0.0117,0.0121,0.0118,0.0109,0.0109,0.009,0.0088,0.0085,0.0051,0.0043,0.0016,-0.0019,-0.0035,-0.0044,-0.0048,-0.0088,-0.0061,-0.0059,-0.0061,-0.0112,-0.0115,-0.0117,-0.0087,-0.0087,-0.0087,0,0,0.014,0.0141,0.0149,0.0144,0.0134,0.0124,0.0126,0.0111,0.0101,0.0092,0.006,0.0034,0.0009,-0.0021,-0.0039,-0.004,-0.0077,-0.0047,-0.003,-0.0078,-0.0081,-0.0084,-0.0133,-0.0141,-0.0044,-0.0044,-0.0044,0,0.0153,0.0161,0.015,0.0154,0.0154,0.0134,0.0141,0.013,0.011,0.01,0.0096,0.0037,0.0015,-0.0022,-0.0022,-0.0034,-0.0071,-0.0031,-0.0075,-0.0079,-0.0082,-0.0133,-0.0141,-0.0042,-0.0043,-0.0043,-0.0043,0,0.0171,0.0179,0.0185,0.0183,0.018,0.0186,0.0171,0.0165,0.0154,0.0136,0.0105,0.0067,0.003,0.0019,0.0002,-0.0036,-0.0057,-0.0067,-0.0077,-0.0082,-0.0135,-0.0145,-0.004,-0.004,-0.0041,-0.0041,0,0,0.0198,0.02,0.0201,0.0207,0.0198,0.02,0.0197,0.0184,0.0174,0.0152,0.013,0.0092,0.0065,0.0042,0.0008,-0.0028,-0.0078,-0.0051,-0.0055,-0.0094,-0.0193,-0.0165,-0.0173,-0.0097,-0.0098,-0.0099,-0.0221,0,0.0216,0.0236,0.0227,0.0244,0.0254,0.0236,0.0234,0.0217,0.0193,0.0166,0.0122,0.0087,0.0075,0.0051,0.0014,-0.0061,-0.0102,-0.0045,-0.0188,-0.0192,-0.0161,-0.0183,-0.0104,-0.0228,-0.0231,-0.0232,-0.0233,0,0.0232,0.0245,0.0269,0.0276,0.0278,0.0283,0.0269,0.0263,0.0216,0.0194,0.0149,0.0105,0.0045,0.0036,-0.0086,-0.005,-0.0114,-0.0168,-0.0174,-0.0168,-0.0182,-0.0224,-0.0252,-0.025,-0.0249,-0.0248,-0.0247,0,0.0257,0.0273,0.0297,0.0301,0.0304,0.0308,0.0306,0.0272,0.026,0.0203,0.018,0.01,0.0057,-0.0033,-0.0128,-0.0117,-0.0264,-0.0269,-0.0308,-0.0308,-0.0314,-0.031,-0.0356,-0.0356,-0.0356,-0.0356,-0.0355,0,0.028,0.0298,0.0312,0.0327,0.0349,0.0337,0.0339,0.0322,0.0281,0.0264,0.0196,0.0163,0.0039,-0.0053,-0.0141,-0.0251,-0.0279,-0.0312,-0.0337,-0.0295,-0.0287,-0.0322,-0.0316,-0.036,-0.0359,-0.0358,-0.0357,0,0.0302,0.0312,0.0342,0.0358,0.0363,0.0379,0.0373,0.036,0.0327,0.0298,0.028,0.0191,0.0082,-0.0047,-0.0203,-0.0262,-0.0377,-0.0409,-0.0359,-0.0379,-0.0389,-0.038,-0.0477,-0.0477,-0.0477,-0.0477,-0.0477,0,0.0316,0.0335,0.037,0.0382,0.0392,0.0407,0.0407,0.0387,0.037,0.0324,0.0307,0.0205,0.0138,-0.0059,-0.0192,-0.0378,-0.0388,-0.0459,-0.0416,-0.0387,-0.0402,-0.0393,-0.0384,-0.0477,-0.0477,-0.0477,-0.0477,0,0.0336,0.0351,0.0373,0.0396,0.041,0.0425,0.0426,0.0428,0.0401,0.0375,0.0336,0.0238,0.0116,-0.0034,-0.0182,-0.0307,-0.0421,-0.046,-0.046,-0.042,-0.0388,-0.0401,-0.0393,-0.0477,-0.0477,-0.0477,-0.0477,0,0.034,0.0357,0.0372,0.0387,0.0412,0.0423,0.0439,0.0425,0.0416,0.0381,0.0375,0.0255,0.0181,0.0002,-0.0131,-0.0257,-0.0282,-0.0316,-0.0324,-0.0326,-0.0234,-0.0169,-0.0217,0,0,0,0,0,0.0324,0.0319,0.0347,0.0365,0.0397,0.0403,0.0426,0.0435,0.0434,0.0419,0.0399,0.0298,0.0123,0.0044,-0.0076,-0.0148,-0.0323,-0.0295,-0.0371,-0.0477,-0.0477,-0.0391,0,0,0,0,0,0,0.0297,0.0317,0.0328,0.0333,0.0348,0.037,0.0395,0.0407,0.04,0.0401,0.0314,0.0271,0.0097,0.0192,-0.0078,-0.0118,-0.0181,-0.0381,-0.0383,-0.0477,-0.0477,-0.0477,-0.0388,0,0,0,0,0]}]]